"2010-12-20 00:00:00",438061,5.561,161.2,4.823,0.699,15.19,104.0786,9.72,10.86,32.84,0,110.1,13.37,10.50,123.2
"2010-12-20 00:00:30",438062,5.096,154.9,6.642,1.215,13.71,104.0572,9.66,10.79,32.66,0,110.1,13.37,10.45,116.9
"2010-12-20 00:01:00",438063,3.989,148.3,4.523,1.112,10.69,104.0445,9.63,10.56,32.44,0,110.1,13.37,10.41,110.3
"2010-12-20 00:01:30",438064,3.316,150.5,2.527,0.043,9.3,104.0236,9.57,10.46,32.56,0,110.1,13.41,10.36,112.5
"2010-12-20 00:02:00",438065,3.09,156.1,2.276,0.09,9.76,104.0248,9.58,10.46,33.11,0,110.1,13.41,10.36,118.1
"2010-12-20 00:02:30",438066,3.114,156.4,1.168,0.061,10.23,104.0438,9.63,10.47,33.34,0,110.1,13.41,10.41,118.4
"2010-12-20 00:03:00",438067,4.06,161.5,6.971,1.302,11.93,104.0523,9.65,10.52,33.33,0,110.1,13.37,10.43,123.5
"2010-12-20 00:03:30",438068,4.952,166.5,6.034,1.331,14.28,104.0567,9.66,10.74,33.59,0,110,13.37,10.44,128.5
"2010-12-20 00:04:00",438069,4.903,165.6,7.15,1.363,14.03,104.0573,9.66,10.73,33.44,0,110.1,13.37,10.45,127.6
"2010-12-20 00:04:30",438070,5.273,168.7,5.847,1.152,13.88,104.0591,9.67,10.76,33.38,0,110.1,13.37,10.45,130.7
"2010-12-20 00:05:00",438071,4.241,159.5,6.609,1.212,10.82,104.0605,9.67,10.51,33.05,0,110.1,13.37,10.45,121.5
"2010-12-20 00:05:30",438072,3.373,153.9,0.998,0.033,9.23,104.0611,9.67,10.49,32.88,0,110.1,13.4,10.46,115.9
"2010-12-20 00:06:00",438073,3.309,154.4,1.489,0.036,9.55,104.0641,9.68,10.48,32.9,0,110.1,13.4,10.46,116.4
"2010-12-20 00:06:30",438074,3.497,157.1,1.465,0.198,10.12,104.0624,9.67,10.5,33.1,0,110.1,13.41,10.46,119.1
"2010-12-20 00:07:00",438075,5.453,167.8,6.256,1.269,13.7,104.0581,9.66,10.58,33.17,0,110.1,13.37,10.45,129.8
"2010-12-20 00:07:30",438076,5.805,171.9,6.071,1.181,14.72,104.0623,9.67,10.7,33.25,0,110.1,13.37,10.46,133.9
"2010-12-20 00:08:00",438077,4.835,169.1,7.381,1.306,13.27,104.0644,9.68,10.75,33.33,0,110.1,13.37,10.46,131.1
"2010-12-20 00:08:30",438078,5.136,168.1,6.549,1.261,12.81,104.0655,9.68,10.68,33.11,0,110.1,13.37,10.47,130.1
"2010-12-20 00:09:00",438079,3.487,160.2,3.766,0.482,10,104.0655,9.68,10.63,32.98,0,110.1,13.41,10.47,122.2
"2010-12-20 00:09:30",438080,3.435,160.9,1.034,0.042,9.27,104.0664,9.68,10.49,32.8,0,110.1,13.41,10.47,122.9
"2010-12-20 00:10:00",438081,3.632,159.9,0.89,0.084,9.76,104.0664,9.68,10.5,32.77,0,110.1,13.41,10.47,121.9
"2010-12-20 00:10:30",438082,4.722,165.4,6.677,1.278,12.28,104.0664,9.68,10.62,32.83,0,110.1,13.38,10.47,127.4
"2010-12-20 00:11:00",438083,3.898,164.8,6.806,0.992,11.96,104.0664,9.68,10.67,32.9,0,110.1,13.38,10.47,126.8
"2010-12-20 00:11:30",438084,5.15,174.3,6.438,1.204,14.12,104.0664,9.68,10.63,32.89,0,110.1,13.38,10.47,136.3
"2010-12-20 00:12:00",438085,4.922,178.6,7.093,1.304,14.39,104.0667,9.68,10.75,33.02,0,110.1,13.38,10.47,140.6
"2010-12-20 00:12:30",438086,3.463,171.9,5.379,0.811,12.16,104.0749,9.71,10.78,33.04,0,110.1,13.38,10.49,133.9
"2010-12-20 00:13:00",438087,4.472,173.8,6.772,1.317,11.37,104.0856,9.73,10.55,32.8,0,110.1,13.38,10.52,135.8
"2010-12-20 00:13:30",438088,3.148,167.3,1.602,0.103,9.63,104.0924,9.75,10.58,32.8,0,110.1,13.42,10.54,129.3
"2010-12-20 00:14:00",438089,2.93,165.3,2.512,0.122,9.74,104.0986,9.77,10.54,32.67,0,110.1,13.42,10.55,127.3
"2010-12-20 00:14:30",438090,3.882,173.8,8.86,1.412,11.92,104.0995,9.77,10.61,32.68,0,110.1,13.38,10.55,135.8
"2010-12-20 00:15:00",438091,3.66,174.1,6.616,1.271,12.19,104.0969,9.76,10.71,32.68,0,110.1,13.39,10.55,136.1
"2010-12-20 00:15:30",438092,3.991,163.4,5.721,1.447,12.26,104.0893,9.74,10.57,32.41,0,110.1,13.39,10.53,125.4
"2010-12-20 00:16:00",438093,4.412,158.9,6.491,1.314,13.29,104.0675,9.69,10.81,32.55,0,110.1,13.39,10.47,120.9
"2010-12-20 00:16:30",438094,5.217,154.4,8.05,1.138,12.95,104.0506,9.64,10.62,32.21,0,110.1,13.39,10.43,116.4
"2010-12-20 00:17:00",438095,4.387,146.8,5.803,1.171,11.21,104.0215,9.57,10.63,32.31,0,110.1,13.39,10.35,108.8
"2010-12-20 00:17:30",438096,4.343,145,5.579,1.188,10.35,103.9986,9.51,10.42,32.18,0,110.1,13.39,10.30,107.0
"2010-12-20 00:18:00",438097,4.612,145.9,6.67,1.313,11.61,103.971,9.44,10.46,32.3,0,110.1,13.38,10.22,107.9
"2010-12-20 00:18:30",438098,4.368,147.6,7.402,1.351,12.04,103.9648,9.42,10.48,32.48,0,110.1,13.39,10.21,109.6
"2010-12-20 00:19:00",438099,3.895,144.8,2.425,0.644,10.2,103.9583,9.41,10.3,32.4,0,110.1,13.39,10.19,106.8
"2010-12-20 00:19:30",438100,4.971,151,6.889,1.343,12.67,103.9475,9.38,10.52,32.73,0,110.1,13.38,10.16,113.0
"2010-12-20 00:20:00",438101,5.531,155.4,6.364,1.253,13.7,103.9444,9.37,10.51,32.7,0,110.1,13.38,10.16,117.4
"2010-12-20 00:20:30",438102,5.445,154,6.786,1.282,12.49,103.9453,9.37,10.3,32.57,0,110.1,13.37,10.16,116.0
"2010-12-20 00:21:00",438103,4.741,151.6,6.729,1.224,11.64,103.9478,9.38,10.41,32.73,0,110.1,13.37,10.17,113.6
"2010-12-20 00:21:30",438104,5.619,154,7.153,1.296,12.38,103.9552,9.4,10.35,32.67,0,110.1,13.37,10.18,116.0
"2010-12-20 00:22:00",438105,4.677,150,6.278,1.199,11.52,103.9631,9.42,10.41,32.58,0,110.1,13.37,10.20,112.0
"2010-12-20 00:22:30",438106,4.42,146.6,3.576,0.676,10.35,103.9648,9.42,10.33,32.27,0,110.1,13.37,10.21,108.6
"2010-12-20 00:23:00",438107,5.441,154,6.229,1.321,12.91,103.9648,9.42,10.39,32.14,0,110.1,13.37,10.21,116.0
"2010-12-20 00:23:30",438108,6.198,158.7,5.612,1.174,14.02,103.9648,9.42,10.44,32.18,0,110.1,13.38,10.21,120.7
"2010-12-20 00:24:00",438109,5.205,153.5,5.933,1.19,11.8,103.9648,9.42,10.39,32.21,0,110.1,13.38,10.21,115.5
"2010-12-20 00:24:30",438110,5.788,158.1,6.601,1.302,12.93,103.9659,9.43,10.39,32.29,0,110.1,13.38,10.21,120.1
"2010-12-20 00:25:00",438111,4.733,152.9,5.22,1.085,10.76,103.9786,9.46,10.36,32.13,0,110.1,13.39,10.24,114.9
"2010-12-20 00:25:30",438112,5.209,155.6,6.764,1.325,11.99,103.9848,9.48,10.43,32.04,0,110.1,13.39,10.26,117.6
"2010-12-20 00:26:00",438113,3.876,147.7,1.083,0.056,9.71,103.9746,9.45,10.3,31.91,0,110.1,13.42,10.23,109.7
"2010-12-20 00:26:30",438114,5.072,152.9,6.937,1.375,11.96,103.9648,9.42,10.41,32.12,0,110.1,13.39,10.21,114.9
"2010-12-20 00:27:00",438115,4.779,150.6,5.88,1.165,11.54,103.9648,9.42,10.37,32.1,0,110.1,13.39,10.21,112.6
"2010-12-20 00:27:30",438116,4.872,152.3,6.69,1.275,12.74,103.9645,9.42,10.44,32.24,0,110.1,13.39,10.21,114.3
"2010-12-20 00:28:00",438117,5.1,153.3,6.101,1.23,13.28,103.9487,9.38,10.49,32.37,0,110.1,13.39,10.17,115.3
"2010-12-20 00:28:30",438118,5.537,153.5,6.769,1.263,12.84,103.9312,9.34,10.39,32.28,0,110.1,13.39,10.12,115.5
"2010-12-20 00:29:00",438119,5.445,153,6.869,1.339,12.11,103.9309,9.34,10.35,32.09,0,110.1,13.39,10.12,115.0
"2010-12-20 00:29:30",438120,4.229,147.6,0.723,0.036,10.08,103.9362,9.35,10.23,31.99,0,110.1,13.42,10.14,109.6
"2010-12-20 00:30:00",438121,4.499,151.7,4.289,0.825,10.72,103.9518,9.39,10.33,32.15,0,110.1,13.39,10.18,113.7
"2010-12-20 00:30:30",438122,5.155,156.4,6.574,1.351,11.92,103.9648,9.42,10.28,32.12,0,110.1,13.39,10.21,118.4
"2010-12-20 00:31:00",438123,5.311,158.8,7.081,1.333,12.82,103.969,9.43,10.44,32.22,0,110.1,13.39,10.22,120.8
"2010-12-20 00:31:30",438124,4.795,156.7,6.294,1.227,12.62,103.9952,9.5,10.48,32.17,0,110,13.39,10.29,118.7
"2010-12-20 00:32:00",438125,5.052,155.7,6.471,1.257,13.07,103.9986,9.51,10.51,32.02,0,110.1,13.39,10.30,117.7
"2010-12-20 00:32:30",438126,3.99,149.1,6.446,1.295,11.93,103.9876,9.48,10.52,32.14,0,110.1,13.39,10.27,111.1
"2010-12-20 00:33:00",438127,3.279,144.9,4.691,0.964,9.74,103.9648,9.42,10.29,32.05,0,110.1,13.39,10.21,106.9
"2010-12-20 00:33:30",438128,3.032,144.2,0.734,0.117,9.47,103.9523,9.39,10.27,32.02,0,110.1,13.39,10.18,106.2
"2010-12-20 00:34:00",438129,4.219,150.9,6.636,1.284,11.85,103.9365,9.35,10.37,32.17,0,110.1,13.39,10.14,112.9
"2010-12-20 00:34:30",438130,3.207,147.3,0.319,0.088,9.86,103.9309,9.34,10.22,32.03,0,110.1,13.42,10.12,109.3
"2010-12-20 00:35:00",438131,3.735,150.6,5.857,0.984,11.3,103.9309,9.34,10.39,32.17,0,110.1,13.39,10.12,112.6
"2010-12-20 00:35:30",438132,4.903,156.3,6.697,1.29,12.57,103.9309,9.34,10.3,32.21,0,110.1,13.39,10.12,118.3
"2010-12-20 00:36:00",438133,4.939,158.8,5.497,1.157,13.37,103.9179,9.3,10.41,32.45,0,110.1,13.39,10.09,120.8
"2010-12-20 00:36:30",438134,3.522,148,6.367,1.157,11.42,103.8992,9.26,10.41,32.74,0,110.1,13.39,10.04,110.0
"2010-12-20 00:37:00",438135,2.482,138.5,0.691,0.028,8.67,103.8704,9.18,10.11,32.98,0,110,13.42,9.97,100.5
"2010-12-20 00:37:30",438136,3.537,146.3,5.346,1.21,10.59,103.8445,9.12,10.13,33.15,0,110.1,13.38,9.90,108.3
"2010-12-20 00:38:00",438137,3.956,151.5,6.478,1.322,11.23,103.8292,9.08,10.16,33.1,0,110.1,13.39,9.86,113.5
"2010-12-20 00:38:30",438138,3.225,149.1,0.532,0.094,9.62,103.8292,9.08,9.99,32.79,0,110.1,13.42,9.86,111.1
"2010-12-20 00:39:00",438139,4.76,154.8,7.106,1.327,12.44,103.8292,9.08,10.07,32.74,0,110.1,13.39,9.86,116.8
"2010-12-20 00:39:30",438140,5.005,155.3,6.282,1.354,13.09,103.8292,9.08,10.22,32.84,0,110,13.39,9.86,117.3
"2010-12-20 00:40:00",438141,5.483,155.1,5.728,1.173,13.76,103.8385,9.1,10.23,32.67,0,110.1,13.39,9.88,117.1
"2010-12-20 00:40:30",438142,4.499,147,6.305,1.233,11.41,103.8628,9.16,10.13,32.46,0,110.1,13.39,9.95,109.0
"2010-12-20 00:41:00",438143,3.826,145.7,3.852,0.513,10.2,103.8662,9.17,10.13,32.44,0,110.1,13.39,9.96,107.7
"2010-12-20 00:41:30",438144,4.646,150.7,6.14,1.301,11.41,103.88,9.21,10.12,32.29,0,110.1,13.39,9.99,112.7
"2010-12-20 00:42:00",438145,3.853,148,4.047,0.653,10.52,103.8933,9.24,10.18,32.3,0,110.1,13.39,10.03,110.0
"2010-12-20 00:42:30",438146,4.415,150.9,5.971,1.168,10.94,103.897,9.25,10.09,32.19,0,110.1,13.39,10.03,112.9
"2010-12-20 00:43:00",438147,3.978,151.1,5.113,0.977,11.15,103.8973,9.25,10.25,32.37,0,110,13.4,10.04,113.1
"2010-12-20 00:43:30",438148,5.366,160.8,5.131,1.159,14.25,103.8973,9.25,10.39,32.56,0,110,13.4,10.04,122.8
"2010-12-20 00:44:00",438149,4.649,154.7,6.875,1.237,13.13,103.8961,9.25,10.3,32.68,0,110.1,13.39,10.03,116.7
"2010-12-20 00:44:30",438150,2.507,140.1,1.593,0.054,8.92,103.8713,9.18,10.07,33.08,0,110.1,13.43,9.97,102.1
"2010-12-20 00:45:00",438151,3.615,144.5,7.14,1.336,10.82,103.8399,9.1,10.17,33.65,0,110,13.39,9.89,106.5
"2010-12-20 00:45:30",438152,2.976,145,4.34,0.56,9.55,103.819,9.05,10.11,33.44,0,110.1,13.4,9.83,107.0
"2010-12-20 00:46:00",438153,3.116,147.1,0.637,0.061,9.35,103.8044,9.01,9.94,32.9,0,110,13.43,9.80,109.1
"2010-12-20 00:46:30",438154,3.775,151.4,6.36,1.142,11.62,103.8199,9.05,10.04,32.91,0,110.1,13.4,9.84,113.4
"2010-12-20 00:47:00",438155,3.761,149.5,6.294,1.256,11.82,103.8281,9.07,10.08,33.09,0,110.1,13.4,9.86,111.5
"2010-12-20 00:47:30",438156,4.908,154,5.357,0.841,14.28,103.8134,9.04,10.24,33.6,0,110,13.4,9.82,116.0
"2010-12-20 00:48:00",438157,3.976,147.1,6.942,1.328,11.71,103.7956,8.99,10.02,33.76,0,110,13.4,9.77,109.1
"2010-12-20 00:48:30",438158,3.528,147,6.98,1.221,11.17,103.7821,8.96,9.98,33.67,0,110,13.4,9.74,109.0
"2010-12-20 00:49:00",438159,2.909,145.3,5.115,1,9.71,103.7668,8.92,9.98,33.53,0,110,13.4,9.70,107.3
"2010-12-20 00:49:30",438160,3.395,148.5,5.833,1.169,10.44,103.7708,8.93,9.86,33.3,0,110,13.4,9.71,110.5
"2010-12-20 00:50:00",438161,2.915,144.7,0.466,0.089,9.51,103.7933,8.99,9.84,32.83,0,110,13.43,9.77,106.7
"2010-12-20 00:50:30",438162,3.117,144.5,0.391,0.035,9.76,103.8145,9.04,9.88,32.4,0,110,13.44,9.82,106.5
"2010-12-20 00:51:00",438163,4.188,150.4,6.706,1.229,12.84,103.8357,9.09,10.18,32.55,0,110.1,13.4,9.88,112.4
"2010-12-20 00:51:30",438164,4.546,155.8,6.766,1.105,13.87,103.8631,9.16,10.27,32.7,0,110,13.4,9.95,117.8
"2010-12-20 00:52:00",438165,2.424,146.8,7.242,1.147,10.67,103.8634,9.16,10.14,33.04,0,110,13.4,9.95,108.8
"2010-12-20 00:52:30",438166,2.56,137.7,11.17,1.275,10.06,103.8388,9.1,10.01,33.57,0,110.1,13.39,9.89,99.7
"2010-12-20 00:53:00",438167,2.921,131.6,6.836,1.316,10.32,103.7874,8.97,10.04,33.83,0,110.1,13.39,9.75,93.6
"2010-12-20 00:53:30",438168,1.876,126.7,0.734,0.088,8.02,103.7259,8.81,9.84,33.74,0,110,13.42,9.60,88.7
"2010-12-20 00:54:00",438169,2.04,128.9,1.672,0.078,8.01,103.679,8.69,9.74,33.56,0,110.1,13.42,9.48,90.9
"2010-12-20 00:54:30",438170,2.32,126.4,1.451,0.119,8.3,103.6321,8.57,9.65,33.36,0,110,13.42,9.36,88.4
"2010-12-20 00:55:00",438171,3.638,129.7,6.56,1.426,11.27,103.5909,8.47,9.74,33.69,0,110,13.39,9.25,91.7
"2010-12-20 00:55:30",438172,4.673,135.5,5.567,0.992,13.27,103.5587,8.39,9.75,33.88,0,110,13.39,9.17,97.5
"2010-12-20 00:56:00",438173,3.35,128.4,6.632,1.252,10.14,103.5355,8.33,9.45,34.05,0,110.1,13.39,9.11,90.4
"2010-12-20 00:56:30",438174,3.074,127.7,5.869,1.152,9.52,103.5242,8.3,9.47,34.33,0,110.1,13.39,9.08,89.7
"2010-12-20 00:57:00",438175,3.674,130.7,6.77,1.251,10.19,103.5039,8.25,9.42,34.4,0,110.1,13.39,9.03,92.7
"2010-12-20 00:57:30",438176,2.659,121.2,1.374,0.087,7.996,103.4903,8.21,9.24,34.25,0,110,13.43,8.99,83.2
"2010-12-20 00:58:00",438177,2.749,121.9,0.906,0.043,8.06,103.4867,8.2,9.19,34.27,0,110,13.43,8.98,83.9
"2010-12-20 00:58:30",438178,3.648,128.7,6.445,1.312,10.24,103.4604,8.13,9.24,34.41,0,110,13.4,8.91,90.7
"2010-12-20 00:59:00",438179,4.621,135.2,6.771,1.218,12.53,103.4565,8.12,9.36,34.66,0,110.1,13.4,8.90,97.2
"2010-12-20 00:59:30",438180,4.422,135,6.476,1.19,12.15,103.4339,8.07,9.24,34.55,0,110,13.4,8.85,97.0
"2010-12-20 01:00:00",438181,3.339,132.3,6.631,1.099,10.16,103.4229,8.04,9.22,34.7,0,110,13.4,8.82,94.3
"2010-12-20 01:00:30",438182,3.337,135.2,5.65,1.306,9.74,103.4214,8.03,9.06,34.67,0,110,13.4,8.81,97.2
"2010-12-20 01:01:00",438183,3.134,136.3,6.667,1.204,9.75,103.3994,7.978,9.07,34.8,0,110,13.4,8.76,98.3
"2010-12-20 01:01:30",438184,2.255,130.6,0.479,0.028,7.98,103.3887,7.951,8.93,34.77,0,110,13.44,8.73,92.6
"2010-12-20 01:02:00",438185,2.322,127.8,2.36,0.059,8.62,103.389,7.952,8.94,34.95,0,110,13.44,8.73,89.8
"2010-12-20 01:02:30",438186,4.419,132.8,6.207,1.088,12.79,103.3893,7.952,9.11,35.32,0,110,13.4,8.73,94.8
"2010-12-20 01:03:00",438187,3.961,129.7,6.724,1.2,12.28,103.3895,7.953,9.12,35.39,0,110,13.4,8.73,91.7
"2010-12-20 01:03:30",438188,3.19,125.5,6.486,1.274,10.74,103.404,7.99,8.96,35.25,0,110,13.4,8.77,87.5
"2010-12-20 01:04:00",438189,3.093,127.7,7.405,1.247,11.02,103.4059,7.995,9.17,35.39,0,110,13.4,8.77,89.7
"2010-12-20 01:04:30",438190,2.787,127.5,4.627,0.977,8.81,103.4056,7.994,8.96,35.01,0,110,13.4,8.77,89.5
"2010-12-20 01:05:00",438191,2.808,127.8,6.228,1.149,9.02,103.3913,7.958,8.93,34.95,0,110,13.4,8.74,89.8
"2010-12-20 01:05:30",438192,2.096,124.8,0.394,0.03,7.928,103.378,7.924,8.84,35.01,0,110,13.44,8.70,86.8
"2010-12-20 01:06:00",438193,2.274,119.9,3.66,0.682,9.05,103.364,7.888,8.95,35.36,0,110,13.4,8.67,81.9
"2010-12-20 01:06:30",438194,4.145,124.8,6.377,1.129,12.63,103.3804,7.93,8.99,35.55,0,110.1,13.4,8.71,86.8
"2010-12-20 01:07:00",438195,3.262,121.4,6.944,1.319,11.82,103.3928,7.961,9.1,35.64,0,110,13.4,8.74,83.4
"2010-12-20 01:07:30",438196,2.618,116.4,6.281,1.066,10.33,103.3951,7.967,9.03,35.48,0,110,13.4,8.75,78.4
"2010-12-20 01:08:00",438197,3.089,116.6,6.348,1.269,9.98,103.3966,7.971,8.86,35.25,0,110,13.4,8.75,78.6
"2010-12-20 01:08:30",438198,3.122,116.7,6.728,1.289,10.31,103.402,7.985,8.98,35.32,0,110,13.4,8.76,78.7
"2010-12-20 01:09:00",438199,2.074,109,0.556,0.033,8.24,103.4051,7.993,8.9,35.28,0,110,13.44,8.77,71.0
"2010-12-20 01:09:30",438200,2.054,112,0.931,0.028,8.13,103.402,7.985,8.84,35.21,0,110,13.43,8.76,74.0
"2010-12-20 01:10:00",438201,2.073,112.5,1.051,0.019,8.48,103.4054,7.994,8.89,35.28,0,110,13.44,8.77,74.5
"2010-12-20 01:10:30",438202,3.805,126.5,7.337,1.361,12.1,103.4103,8.01,9.13,35.49,0,110,13.4,8.79,88.5
"2010-12-20 01:11:00",438203,4.839,136.5,7.146,1.151,12.28,103.4038,7.99,9.05,35.38,0,110,13.4,8.77,98.5
"2010-12-20 01:11:30",438204,3.988,139.1,6.186,1.169,10.05,103.3951,7.967,9.07,35.35,0,110,13.4,8.75,101.1
"2010-12-20 01:12:00",438205,5.185,141.8,6.448,1.244,10.01,103.3679,7.898,8.89,35.17,0,110,13.4,8.68,103.8
"2010-12-20 01:12:30",438206,5.172,143.4,6.76,1.273,10.22,103.3392,7.825,8.9,35.3,0,110,13.4,8.60,105.4
"2010-12-20 01:13:00",438207,4.123,139.6,0.95,0.048,8.17,103.3126,7.756,8.74,35.31,0,110,13.43,8.54,101.6
"2010-12-20 01:13:30",438208,5.66,145.4,6.491,1.276,11.61,103.3016,7.728,8.82,35.61,0,110,13.4,8.51,107.4
"2010-12-20 01:14:00",438209,5.403,142.4,5.427,1.205,12.31,103.3063,7.74,8.91,35.97,0,110,13.4,8.52,104.4
"2010-12-20 01:14:30",438210,5.023,139.3,6.228,1.167,12.58,103.3095,7.749,8.87,36.11,0,110,13.4,8.53,101.3
"2010-12-20 01:15:00",438211,4.187,134.7,6.806,1.263,10.41,103.3166,7.767,8.65,35.88,0,110,13.4,8.55,96.7
"2010-12-20 01:15:30",438212,3.557,133,5.763,1.114,10,103.3437,7.836,8.8,35.97,0,110,13.4,8.62,95.0
"2010-12-20 01:16:00",438213,3.183,128.8,4.037,0.889,8.74,103.3454,7.84,8.67,35.77,0,110,13.41,8.62,90.8
"2010-12-20 01:16:30",438214,2.889,127.7,0.767,0.045,8.32,103.3534,7.861,8.69,35.69,0,110,13.44,8.64,89.7
"2010-12-20 01:17:00",438215,3.827,130.6,6.188,1.287,10.66,103.3712,7.906,8.86,35.8,0,110,13.41,8.69,92.6
"2010-12-20 01:17:30",438216,3.972,132.4,7.373,1.296,11.52,103.3802,7.929,8.88,35.8,0,110,13.41,8.71,94.4
"2010-12-20 01:18:00",438217,4.473,135.5,8.9,1.348,12.39,103.3814,7.932,8.99,35.86,0,110,13.41,8.71,97.5
"2010-12-20 01:18:30",438218,3.513,125.8,9.59,1.335,10.61,103.3834,7.937,8.91,35.78,0,110,13.41,8.72,87.8
"2010-12-20 01:19:00",438219,3.536,131.2,5.931,0.83,9.13,103.384,7.939,8.91,35.64,0,110,13.41,8.72,93.2
"2010-12-20 01:19:30",438220,3.841,131.8,6.254,1.201,9.19,103.3863,7.945,8.8,35.56,0,110,13.41,8.72,93.8
"2010-12-20 01:20:00",438221,3.534,129.8,2.659,0.105,8.29,103.3991,7.978,8.77,35.48,0,110,13.45,8.76,91.8
"2010-12-20 01:20:30",438222,4.658,137.2,4.832,0.869,9.36,103.4098,8,8.84,35.51,0,110,13.41,8.78,99.2
"2010-12-20 01:21:00",438223,6.222,146.6,6.977,1.212,12.7,103.4154,8.02,9.07,35.62,0,110,13.41,8.80,108.6
"2010-12-20 01:21:30",438224,6.147,145.6,5.691,1.223,12.82,103.4205,8.03,9.07,35.6,0,110,13.41,8.81,107.6
"2010-12-20 01:22:00",438225,6.318,143.8,6.516,1.207,12.16,103.4223,8.04,9.04,35.54,0,110,13.41,8.82,105.8
"2010-12-20 01:22:30",438226,4.949,135.1,5.014,0.892,9.45,103.4234,8.04,8.93,35.46,0,110,13.41,8.82,97.1
"2010-12-20 01:23:00",438227,5.629,140.2,5.878,1.269,10.3,103.4237,8.04,8.85,35.33,0,110,13.41,8.82,102.2
"2010-12-20 01:23:30",438228,5.548,139.5,5.902,1.238,9.94,103.4234,8.04,8.85,35.28,0,110,13.41,8.82,101.5
"2010-12-20 01:24:00",438229,5.572,139.5,6.674,1.219,11.19,103.424,8.04,9,35.46,0,110,13.41,8.82,101.5
"2010-12-20 01:24:30",438230,6.087,143,6.594,1.113,12.85,103.4344,8.07,9.1,35.51,0,110,13.41,8.85,105.0
"2010-12-20 01:25:00",438231,6.8,144.6,5.441,0.908,13.74,103.4443,8.09,9.13,35.52,0,110,13.41,8.87,106.6
"2010-12-20 01:25:30",438232,4.93,135.7,6.547,1.327,10.88,103.4554,8.12,9.01,35.4,0,110,13.4,8.90,97.7
"2010-12-20 01:26:00",438233,5.439,137.9,5.227,1.534,10.77,103.4576,8.13,9.06,35.38,0,110,13.4,8.91,99.9
"2010-12-20 01:26:30",438234,4.424,137.6,4.599,0.689,9.32,103.4576,8.13,8.98,35.16,0,110,13.4,8.91,99.6
"2010-12-20 01:27:00",438235,5.316,141.3,5.411,1.305,10.55,103.4588,8.13,8.97,35.04,0,110,13.4,8.91,103.3
"2010-12-20 01:27:30",438236,5.984,142.1,7.452,1.17,12.93,103.4842,8.2,9.19,35.24,0,110,13.4,8.98,104.1
"2010-12-20 01:28:00",438237,5.39,136.8,6.468,1.257,13.25,103.4915,8.21,9.24,35.36,0,110,13.4,8.99,98.8
"2010-12-20 01:28:30",438238,5.433,137.2,4.967,0.979,13.2,103.4915,8.21,9.22,35.34,0,110,13.4,8.99,99.2
"2010-12-20 01:29:00",438239,4.809,136.7,6.233,1.459,10.69,103.4915,8.21,9.2,35.23,0,110,13.4,8.99,98.7
"2010-12-20 01:29:30",438240,4.603,133.7,2.126,0.229,8.58,103.4927,8.22,9.01,34.77,0,110,13.4,9.00,95.7
"2010-12-20 01:30:00",438241,5.688,139.5,7.88,1.342,9.71,103.5031,8.24,9.04,34.6,0,110,13.4,9.02,101.5
"2010-12-20 01:30:30",438242,5.39,134.6,5.309,1.141,11.26,103.5056,8.25,9.22,34.78,0,110,13.41,9.03,96.6
"2010-12-20 01:31:00",438243,6.242,135.1,5.593,1.065,13.27,103.5011,8.24,9.31,34.96,0,110,13.41,9.02,97.1
"2010-12-20 01:31:30",438244,5.744,131.1,5.498,1.153,12.76,103.496,8.23,9.33,35.04,0,110,13.41,9.01,93.1
"2010-12-20 01:32:00",438245,5.391,129.9,6.299,1.212,12.5,103.4924,8.22,9.27,35.09,0,110,13.41,9.00,91.9
"2010-12-20 01:32:30",438246,3.5,119.4,4.325,0.671,9.18,103.4943,8.22,9.19,35.06,0,110,13.45,9.00,81.4
"2010-12-20 01:33:00",438247,3.207,115.5,1.595,0.07,8.24,103.4986,8.23,9.07,34.95,0,110,13.45,9.01,77.5
"2010-12-20 01:33:30",438248,3.051,111.9,0.862,0.11,8.66,103.5071,8.25,9.06,35.11,0,110,13.45,9.03,73.9
"2010-12-20 01:34:00",438249,3.93,116.7,7.382,1.31,11.3,103.5141,8.27,9.22,35.3,0,110,13.41,9.05,78.7
"2010-12-20 01:34:30",438250,3.561,117.6,7.514,1.272,11.47,103.5215,8.29,9.29,35.35,0,110,13.41,9.07,79.6
"2010-12-20 01:35:00",438251,4.457,125.9,9.01,1.253,13.07,103.5254,8.3,9.33,35.41,0,110,13.41,9.08,87.9
"2010-12-20 01:35:30",438252,4.205,126.1,8.13,1.329,11.74,103.5254,8.3,9.29,35.31,0,110,13.41,9.08,88.1
"2010-12-20 01:36:00",438253,3.223,122.5,5.539,1.118,10.05,103.5257,8.3,9.31,35.29,0,110,13.41,9.08,84.5
"2010-12-20 01:36:30",438254,2.836,125.8,2.145,0.098,8.23,103.5381,8.33,9.13,35.08,0,110,13.45,9.11,87.8
"2010-12-20 01:37:00",438255,2.646,126.3,2.974,0.19,8.35,103.5525,8.37,9.16,35.04,0,110,13.45,9.15,88.3
"2010-12-20 01:37:30",438256,2.691,123.6,3.276,0.662,9.45,103.5593,8.39,9.29,35.08,0,110,13.41,9.17,85.6
"2010-12-20 01:38:00",438257,3.934,128.5,6.215,1.332,11.71,103.5593,8.39,9.3,35.04,0,110,13.41,9.17,90.5
"2010-12-20 01:38:30",438258,3.456,129.7,6.004,1.313,11.84,103.5593,8.39,9.38,35.14,0,110,13.41,9.17,91.7
"2010-12-20 01:39:00",438259,3.573,126.1,6.684,1.203,10.72,103.5593,8.39,9.34,34.91,0,110,13.41,9.17,88.1
"2010-12-20 01:39:30",438260,4.559,131.6,6.959,1.24,12.35,103.5525,8.37,9.43,34.98,0,110,13.41,9.15,93.6
"2010-12-20 01:40:00",438261,3.11,124.9,4.334,0.837,8.96,103.55,8.36,9.21,34.79,0,110,13.41,9.14,86.9
"2010-12-20 01:40:30",438262,2.871,125.6,0.99,0.065,8.28,103.5534,8.37,9.19,34.5,0,110,13.45,9.15,87.6
"2010-12-20 01:41:00",438263,3.723,135.6,7.082,1.148,9.45,103.5593,8.39,9.19,34.43,0,110,13.41,9.17,97.6
"2010-12-20 01:41:30",438264,3.899,140.1,5.923,1.166,10.75,103.5593,8.39,9.35,34.55,0,110,13.42,9.17,102.1
"2010-12-20 01:42:00",438265,4.567,142.5,6.625,1.247,11.8,103.5613,8.39,9.46,34.5,0,110,13.41,9.17,104.5
"2010-12-20 01:42:30",438266,5.459,148.9,6.485,1.294,13.33,103.5751,8.43,9.45,34.17,0,110,13.41,9.21,110.9
"2010-12-20 01:43:00",438267,5.324,144.9,6.423,1.284,12.42,103.589,8.46,9.47,33.99,0,110,13.41,9.24,106.9
"2010-12-20 01:43:30",438268,5.286,145.1,6.846,1.246,11.64,103.5932,8.47,9.44,33.87,0,110,13.41,9.26,107.1
"2010-12-20 01:44:00",438269,3.943,137.2,0.49,0.053,8.9,103.5938,8.48,9.27,33.59,0,110,13.44,9.26,99.2
"2010-12-20 01:44:30",438270,4.496,141.3,6.324,1.123,10.45,103.6056,8.51,9.43,33.65,0,110,13.41,9.29,103.3
"2010-12-20 01:45:00",438271,5.258,144.1,6.877,1.314,11.66,103.6232,8.55,9.41,33.54,0,110,13.41,9.33,106.1
"2010-12-20 01:45:30",438272,4.847,143.6,6.475,1.314,11.35,103.6271,8.56,9.45,33.49,0,110.1,13.41,9.34,105.6
"2010-12-20 01:46:00",438273,4.476,145.5,6.546,1.223,11.63,103.6274,8.56,9.63,33.6,0,110,13.41,9.34,107.5
"2010-12-20 01:46:30",438274,5.475,149.2,5.842,1.172,12.91,103.6305,8.57,9.61,33.44,0,110,13.41,9.35,111.2
"2010-12-20 01:47:00",438275,4,141.7,5.917,1.033,10.32,103.6283,8.56,9.6,33.31,0,110,13.42,9.35,103.7
"2010-12-20 01:47:30",438276,3.729,134.5,2.189,0.07,8.81,103.6271,8.56,9.38,33.04,0,110,13.45,9.34,96.5
"2010-12-20 01:48:00",438277,4.778,138.5,6.885,1.298,10.93,103.6271,8.56,9.48,33.14,0,110,13.42,9.34,100.5
"2010-12-20 01:48:30",438278,4.672,141.2,6.902,1.269,11.53,103.6271,8.56,9.55,33.24,0,110,13.42,9.34,103.2
"2010-12-20 01:49:00",438279,4.831,144.7,6.985,1.286,11.66,103.6271,8.56,9.47,33.15,0,110,13.42,9.34,106.7
"2010-12-20 01:49:30",438280,4.326,144.5,6.222,1.306,11.36,103.6271,8.56,9.45,33.12,0,110,13.42,9.34,106.5
"2010-12-20 01:50:00",438281,4.956,148.4,6.962,1.251,12.28,103.6285,8.56,9.59,33.29,0,110,13.42,9.35,110.4
"2010-12-20 01:50:30",438282,4.015,142.4,6.431,1.17,11.48,103.6339,8.58,9.63,33.27,0,110,13.42,9.36,104.4
"2010-12-20 01:51:00",438283,3.765,135.9,5.928,0.904,9.39,103.6359,8.58,9.41,33.03,0,110,13.42,9.37,97.9
"2010-12-20 01:51:30",438284,4.417,137.8,7.097,1.27,11.14,103.6393,8.59,9.48,33.09,0,110,13.42,9.37,99.8